User: anonymous   Login
Location: Unspecified
(0.0000°N, 0.0000°E)
Time: 00:11:25
(UTC+00:00)
Language:

STARLINK-4345 - Orbit

View from above orbital plane
View from above orbital plane
View from above satellite
View from above satellite

Ground track
Ground track

The orbit is defined by the following mean orbital elements,

1 53049U          26145.38181156 +.00000000 +00000-0 +65331-3 0 00006
2 53049  97.4474 325.2869 0001273  94.1461 265.9911 15.05610341    00
Epoch (UTC): 25 May 2026 09:09:48
Eccentricity: 0.0001273
inclination: 97.4474°
perigee height: 549 km
apogee height: 551 km
right ascension of ascending node: 325.2869°
argument of perigee: 94.1461°
revolutions per day: 15.05610341
mean anomaly at epoch: 265.9911°

The dashed part of the orbit path shows where the satellite is in the earth's shadow,  

DLR